Weather reports worldwide

Advertisment
Riga, Latvia (26422): temperature & dewpoint: 02.08.2020 17:00:00 - 08.08.2020 17:00:00 (EEST)Riga, Latvia (26422): wind speed & gusts: 02.08.2020 17:00:00 - 08.08.2020 17:00:00 (EEST)Riga, Latvia (26422): wind direction: 02.08.2020 17:00:00 - 08.08.2020 17:00:00 (EEST)Riga, Latvia (26422): reduced air pressure: 02.08.2020 17:00:00 - 08.08.2020 17:00:00 (EEST)Riga, Latvia (26422): visibility: 02.08.2020 17:00:00 - 08.08.2020 17:00:00 (EEST)Riga, Latvia (26422): sunshine duration: 02.08.2020 17:00:00 - 08.08.2020 17:00:00 (EEST)Riga, Latvia (26422): precipitation: 02.08.2020 17:00:00 - 08.08.2020 17:00:00 (EEST)
Date & Time tt [°C] td [°C] ff [km/h] ff [kn] fx [km/h] fx [kn] dd ppp [hPa] vv [km] sd [min] rr [mm]
08.08.2020 17:00:00 - - - - - - - - - - -
08.08.2020 16:00:00 25,0 14,5 11 6 22 12 N 1024,0 20 - -
08.08.2020 15:00:00 25,8 14,5 13 7 22 12 NNW 1024,5 20 0 0,0
08.08.2020 14:00:00 25,5 13,4 7 4 18 10 NW 1024,8 20 - -
08.08.2020 13:00:00 25,1 12,7 29 16 18 10 W 1025,2 20 - -
08.08.2020 12:00:00 24,4 12,9 8 5 16 9 N 1025,6 20 - 0,0
08.08.2020 11:00:00 23,7 14,4 - - - - N 1026,0 20 - -
08.08.2020 10:00:00 - - - - - - - - - - -
08.08.2020 09:00:00 21,2 16,9 1 1 4 2 W 1026,4 14 0 0,0
08.08.2020 08:00:00 18,8 16,0 18 10 4 2 E 1026,3 13 - -
08.08.2020 07:00:00 17,1 16,1 25 14 5 3 E 1026,4 9 - -
08.08.2020 06:00:00 16,5 15,6 3 1 5 3 N 1026,6 8 0 0,0
08.08.2020 05:00:00 16,7 15,4 14 8 7 4 NW 1026,6 14 - -
08.08.2020 04:00:00 16,9 15,2 11 6 7 4 NE 1026,7 15 - -
08.08.2020 03:00:00 17,2 15,3 4 2 7 4 ENE 1026,8 15 0 0,0
08.08.2020 02:00:00 17,3 15,5 25 14 11 6 NE 1026,8 15 - -
08.08.2020 01:00:00 18,0 14,7 4 2 11 6 N 1026,8 15 - -
08.08.2020 00:00:00 18,5 13,8 18 10 14 8 NE 1026,8 18 0 0,0
07.08.2020 23:00:00 19,2 13,6 22 12 14 8 NE 1026,8 20 - -
07.08.2020 22:00:00 20,2 11,9 7 4 18 10 N 1026,8 20 - -
07.08.2020 21:00:00 21,9 10,9 8 4 18 10 NNE 1026,9 20 0 0,0
07.08.2020 20:00:00 23,7 9,3 18 10 25 14 NE 1026,8 20 - -
07.08.2020 19:00:00 25,1 9,0 11 6 25 14 NE 1027,2 20 - -
07.08.2020 18:00:00 25,1 10,8 13 7 22 12 N 1027,5 20 0 0,0
07.08.2020 17:00:00 24,9 10,7 14 8 25 14 N 1027,6 20 - -
07.08.2020 16:00:00 24,7 10,9 32 18 25 14 N 1028,0 20 - -
07.08.2020 15:00:00 24,9 12,1 13 7 22 12 N 1028,3 20 0 0,0
07.08.2020 14:00:00 24,8 13,0 4 2 22 12 NW 1028,4 20 - -
07.08.2020 13:00:00 24,6 13,8 14 8 14 8 N 1028,4 20 - -
07.08.2020 12:00:00 23,4 16,1 7 4 12 7 W 1028,5 20 0 0,0
07.08.2020 11:00:00 22,6 15,7 11 6 11 6 NW 1028,7 18 - -
07.08.2020 10:00:00 21,7 14,6 4 2 11 6 NW 1028,8 20 - -
07.08.2020 09:00:00 20,1 14,8 2 1 8 4 WNW 1028,8 20 0 0,0
07.08.2020 08:00:00 18,1 14,0 25 14 7 4 SW 1028,7 20 - -
07.08.2020 07:00:00 17,3 13,6 29 16 14 8 SW 1028,4 20 - -
07.08.2020 06:00:00 16,7 13,2 5 3 13 7 NNW 1027,9 20 0 0,0
07.08.2020 05:00:00 17,1 13,0 18 10 14 8 NW 1027,6 20 - -
07.08.2020 04:00:00 17,4 12,9 7 4 14 8 W 1027,5 20 - -
07.08.2020 03:00:00 17,8 13,6 9 5 14 7 WNW 1027,4 20 0 0,0
07.08.2020 02:00:00 18,3 13,4 25 14 14 8 NW 1027,2 20 - -
07.08.2020 01:00:00 19,4 12,7 4 2 18 10 W 1027,2 20 - -
07.08.2020 00:00:00 20,2 12,6 8 5 18 10 NW 1026,7 20 0 0,0
06.08.2020 23:00:00 21,0 12,9 4 2 18 10 NW 1026,2 20 - -
06.08.2020 22:00:00 22,0 13,6 14 8 18 10 NW 1025,9 20 - -
06.08.2020 21:00:00 23,3 13,7 8 4 18 10 NW 1025,6 20 - 0,0
06.08.2020 20:00:00 24,4 13,9 22 12 22 12 NW 1025,2 20 - -
06.08.2020 19:00:00 26,5 14,3 22 12 25 14 W 1025,0 20 - -
06.08.2020 18:00:00 25,5 13,3 14 7 24 13 WNW 1024,9 20 0 0,0
06.08.2020 17:00:00 26,0 12,1 7 4 32 18 W 1025,0 20 - -
06.08.2020 16:00:00 25,7 11,5 22 12 32 18 W 1025,0 20 - -
06.08.2020 15:00:00 25,6 12,0 16 9 32 17 SSW 1025,1 20 0 0,0
06.08.2020 14:00:00 24,1 11,8 11 6 29 16 SW 1025,4 20 - -
06.08.2020 13:00:00 23,2 12,2 32 18 25 14 SW 1025,5 20 - -
06.08.2020 12:00:00 21,5 11,2 12 7 26 14 SW 1025,5 20 1 0,0
06.08.2020 11:00:00 20,0 11,7 32 18 22 12 S 1025,4 20 - -
06.08.2020 10:00:00 19,6 11,9 22 12 18 10 SW 1025,1 20 - -
06.08.2020 09:00:00 17,5 12,1 8 4 18 10 SW 1024,8 20 0 0,0
06.08.2020 08:00:00 15,8 11,2 7 4 14 8 SW 1024,4 20 - -
06.08.2020 07:00:00 14,4 11,0 7 4 14 8 SW 1024,0 20 - -
06.08.2020 06:00:00 14,1 11,2 7 4 14 8 SW 1023,8 20 0 0,0
06.08.2020 05:00:00 14,1 11,1 29 16 14 8 SW 1023,2 20 - -
06.08.2020 04:00:00 14,6 11,0 32 18 14 8 SW 1023,1 20 - -
06.08.2020 03:00:00 14,8 10,9 8 5 16 9 WSW 1022,7 20 0 0,0
06.08.2020 02:00:00 14,5 10,7 29 16 14 8 SW 1022,4 20 - -
06.08.2020 01:00:00 15,1 10,7 22 12 11 6 SW 1022,2 20 - -
06.08.2020 00:00:00 15,9 10,1 5 3 10 5 SW 1021,9 20 0 0,0
05.08.2020 23:00:00 15,8 10,8 32 18 18 10 W 1021,4 20 - -
05.08.2020 22:00:00 16,8 10,4 18 10 25 14 NW 1021,2 20 - -
05.08.2020 21:00:00 18,4 10,2 10 5 26 14 NW 1020,7 20 0 0,0
05.08.2020 20:00:00 19,6 9,5 11 6 32 18 NW 1020,4 20 - -
05.08.2020 19:00:00 20,4 12,4 14 8 29 16 NW 1019,8 20 - -
05.08.2020 18:00:00 21,0 13,4 14 8 29 15 NW 1019,1 20 0 0,0
05.08.2020 17:00:00 22,3 12,0 11 6 18 10 W 1018,4 20 - -
05.08.2020 16:00:00 21,9 11,6 7 4 22 12 SW 1018,2 20 - -
05.08.2020 15:00:00 22,0 12,2 11 6 22 12 SW 1018,2 20 - 0,0
05.08.2020 14:00:00 21,3 10,5 32 18 25 14 NW 1018,0 20 - -
05.08.2020 13:00:00 21,0 12,7 4 2 22 12 W 1017,8 20 - -
05.08.2020 12:00:00 19,5 13,1 6 3 16 9 W 1017,3 20 0 0,0
05.08.2020 11:00:00 19,2 14,5 7 4 18 10 W 1016,8 20 - -
05.08.2020 10:00:00 18,4 14,9 11 6 18 10 NW 1016,4 20 - -
05.08.2020 09:00:00 17,8 16,4 9 5 16 9 WNW 1015,6 20 0 0,0
05.08.2020 08:00:00 16,5 16,0 32 18 14 8 W 1015,1 11 - -
05.08.2020 07:00:00 15,9 15,7 7 4 14 8 W 1014,4 7 - -
05.08.2020 06:00:00 16,2 16,0 9 5 14 8 WNW 1013,8 8 0 0,0
05.08.2020 05:00:00 16,6 16,4 18 10 14 8 W 1013,0 10 - -
05.08.2020 04:00:00 16,8 16,5 7 4 14 8 W 1012,7 14 - -
05.08.2020 03:00:00 17,0 16,8 9 5 15 8 NW 1012,1 12 0 0,0
05.08.2020 02:00:00 16,8 16,6 4 2 14 8 NW 1011,4 14 - -
05.08.2020 01:00:00 16,7 16,5 29 16 14 8 NW 1011,3 12 - -
05.08.2020 00:00:00 16,7 16,5 9 5 14 8 NW 1010,8 7 0 0,1
04.08.2020 23:00:00 16,7 16,5 14 8 11 6 NW 1010,5 5 - -
04.08.2020 22:00:00 16,5 16,3 7 4 11 6 N 1010,5 6 - -
04.08.2020 21:00:00 16,9 16,8 6 4 11 6 NW 1010,2 6 0 1,0
04.08.2020 20:00:00 17,2 17,0 18 10 14 8 W 1009,9 2,7 - -
04.08.2020 19:00:00 17,4 16,9 11 6 14 8 N 1009,3 4,2 - -
04.08.2020 18:00:00 17,8 16,4 9 5 13 7 NNW 1009,4 13 0 0,0
04.08.2020 17:00:00 18,6 16,4 18 10 18 10 N 1009,0 15 - -
04.08.2020 16:00:00 18,8 16,2 7 4 14 8 NW 1009,1 16 - -
04.08.2020 15:00:00 19,4 16,4 5 3 10 6 S 1008,9 18 0 0,0
04.08.2020 14:00:00 19,5 15,8 4 2 14 8 S 1008,7 19 - -
04.08.2020 13:00:00 19,5 15,2 32 18 14 8 S 1008,5 20 - -
04.08.2020 12:00:00 18,3 15,8 4 2 11 6 S 1008,6 19 0 0,0
04.08.2020 11:00:00 17,3 16,2 4 2 22 12 E 1008,3 8 - -
04.08.2020 10:00:00 16,9 16,1 18 10 25 14 SE 1008,9 13 - -
04.08.2020 09:00:00 16,7 15,7 14 8 25 14 ESE 1008,8 10 0 1,8
04.08.2020 08:00:00 16,8 15,7 32 18 25 14 E 1008,5 15 - -
04.08.2020 07:00:00 16,5 15,5 7 4 14 8 E 1009,0 13 - -
04.08.2020 06:00:00 16,7 15,7 7 4 16 8 E 1009,1 13 0 0,3
04.08.2020 05:00:00 17,3 17,0 7 4 14 8 E 1009,7 8 - -
04.08.2020 04:00:00 17,4 17,2 4 2 11 6 NE 1009,9 4,7 - -
04.08.2020 03:00:00 17,7 17,0 2 1 10 5 SE 1010,2 8 0 1,0
04.08.2020 02:00:00 18,3 17,5 18 10 11 6 SE 1010,5 11 - -
04.08.2020 01:00:00 18,5 16,7 14 8 7 4 E 1010,1 17 - -
04.08.2020 00:00:00 18,4 16,5 3 2 6 4 NNE 1009,8 13 0 0,0
03.08.2020 23:00:00 18,6 16,4 14 8 11 6 NE 1009,7 18 - -
03.08.2020 22:00:00 18,8 16,4 29 16 11 6 NE 1009,8 20 - -
03.08.2020 21:00:00 19,2 16,4 5 3 12 6 N 1010,0 20 0 0,0
03.08.2020 20:00:00 21,2 15,5 32 18 22 12 SW 1009,9 20 - -
03.08.2020 19:00:00 21,4 15,5 25 14 22 12 S 1009,8 20 - -
03.08.2020 18:00:00 21,5 15,3 14 8 20 11 S 1010,0 20 0 0,0
03.08.2020 17:00:00 21,3 14,5 32 18 18 10 S 1010,2 20 - -
03.08.2020 16:00:00 20,5 14,8 22 12 22 12 S 1010,3 20 - -
03.08.2020 15:00:00 20,6 14,4 10 6 21 12 SSW 1010,4 20 0 0,0
03.08.2020 14:00:00 20,2 14,3 29 16 25 14 SW 1010,5 20 - -
03.08.2020 13:00:00 19,9 14,9 11 6 25 14 SW 1010,5 20 - -
03.08.2020 12:00:00 18,7 14,5 11 6 18 10 SSW 1010,3 20 0 0,0
03.08.2020 11:00:00 18,1 14,6 7 4 22 12 SW 1010,2 20 - -
03.08.2020 10:00:00 17,7 14,2 32 18 18 10 W 1010,2 17 - -
03.08.2020 09:00:00 17,7 12,7 11 6 16 9 SSW 1010,2 20 0 0,0
03.08.2020 08:00:00 16,0 12,0 18 10 18 10 S 1010,3 20 - -
03.08.2020 07:00:00 15,1 11,5 29 16 18 10 S 1010,5 20 - -
03.08.2020 06:00:00 14,9 11,4 9 5 12 7 S 1010,3 20 0 0,0
03.08.2020 05:00:00 15,1 11,9 11 6 14 8 S 1010,5 20 - -
03.08.2020 04:00:00 15,5 12,3 4 2 14 8 S 1010,6 20 - -
03.08.2020 03:00:00 15,4 12,2 4 2 14 8 SW 1010,9 20 0 0,0
03.08.2020 02:00:00 15,9 11,7 7 4 14 8 SW 1010,9 18 - -
03.08.2020 01:00:00 16,8 11,9 29 16 14 8 S 1011,0 20 - -
03.08.2020 00:00:00 18,0 11,9 7 4 14 8 S 1011,0 20 0 0,0
02.08.2020 23:00:00 18,9 12,4 18 10 14 8 S 1011,3 20 - -
02.08.2020 22:00:00 19,9 12,6 14 8 18 10 S 1011,3 20 - -
02.08.2020 21:00:00 21,4 11,4 10 5 19 11 SSE 1011,2 20 0 0,0
02.08.2020 20:00:00 22,1 10,6 25 14 22 12 S 1011,4 20 - -
02.08.2020 19:00:00 21,9 10,4 22 12 22 12 SE 1011,8 20 - -
02.08.2020 18:00:00 21,7 9,8 11 6 22 12 S 1012,1 20 0 0,0
02.08.2020 17:00:00 21,7 9,6 22 12 22 12 S 1012,7 20 - -

tt = temperature
td = dewpoint
ff = wind speed
fx = gusts
dd = wind direction
ppp = reduced air pressure
vv = visibility
sd = sunshine duration
rr = precipitation

Next stations